Regional Weather Roundup
Issued by NWS Green Bay, WI

Home | Current Version | Previous Version | Text Only | Print | Product List | Glossary On
Versions: 1 2 3 4 5 6 7 8 9 10 11 12 13 14 15 16 17 18 19 20 21 22 23 24 25 26 27 28 29 30 31 32 33 34 35 36 37 38 39 40 41 42 43 44 45 46 47 48 49 50
000
ASUS43 KGRB 230059
RWRGRB

NORTH-CENTRAL AND NORTHEAST WISCONSIN REGIONAL WEATHER ROUNDUP
NATIONAL WEATHER SERVICE GREEN BAY WI
800 PM CDT MON SEP 22 2014

WIZ005-009-010>012-018-019-230200-
NORTH CENTRAL WISCONSIN

CITY           SKY/WX    TMP DP  RH WIND       PRES   REMARKS
IRONWOOD       CLEAR     55  52  88 CALM      30.11R
MANITOWISH WTR NOT AVBL
ARBOR VITAE    NOT AVBL
EAGLE RIVER    NOT AVBL
LAND O LAKES   NOT AVBL
RHINELANDER    CLEAR     52  48  86 W5        30.17R
PHILLIPS       CLEAR     53  51  93 CALM      30.16R
ANTIGO         NOT AVBL
TOMAHAWK       NOT AVBL
MERRILL        NOT AVBL
$$

WIZ013-073-230200-
NORTHEAST WISCONSIN

CITY           SKY/WX    TMP DP  RH WIND       PRES   REMARKS
IRON MOUNTAIN  CLEAR     54  47  77 CALM      30.12R
MARINETTE      CLEAR     59  48  67 SW3       30.14R
$$

WIZ017-030-035>037-045-230200-
CENTRAL WISCONSIN

CITY           SKY/WX    TMP DP  RH WIND       PRES   REMARKS
MEDFORD        NOT AVBL
WAUSAU         CLEAR     58  50  75 SW5       30.17R
MOSINEE        CLEAR     57  52  82 W5        30.20R
MARSHFIELD     CLEAR     57  51  80 W5        30.19R
WISC RAPIDS    CLEAR     53  52  96 CALM      30.20R
STEVENS POINT  NOT AVBL
WAUPACA        NOT AVBL
SHAWANO        CLEAR     60  51  71 SW3       30.16S
CLINTONVILLE   CLEAR     55  50  82 CALM      30.18R
$$

WIZ038-039-048-051-230200-
FOX VALLEY

CITY           SKY/WX    TMP DP  RH WIND       PRES   REMARKS
NWS GREEN BAY  CLEAR     54  51  90 SW3       30.17R
APPLETON       CLEAR     61  48  63 SW7       30.18R
OSHKOSH        CLEAR     59  50  72 SW3       30.18R
FOND DU LAC    CLEAR     58  49  72 SW5       30.20R
$$

WIZ022-050-052-230200-
EAST CENTRAL WISCONSIN

CITY           SKY/WX    TMP DP  RH WIND       PRES   REMARKS
STURGEON BAY   CLEAR     57  48  72 SW6       30.16S
MANITOWOC      NOT AVBL
SHEBOYGAN      CLEAR     53  49  86 CALM      30.20R
$$

LMZ563-521-522-541>543-230200-
LAKESHORE

STATION/POSITION TIME  TEMP    WIND        PRES    VSBY  WAVE
                       AIR SEA DIR/SP/G                  HT/PER
                 (UTC) (F)     (DEG/KT/KT) (MB)    (MI)  (FT/S)
SHEBOYGAN LKSHOR 0000   58 53  190/  8/  9 1022.3R
KEWAUNEE LKSHORE 0000   61     220/  3/  4 1020.5R
NORTHPORT PIER   0000   58     180/  2/  5 1020.0R
N MID LAKE BUOY  0000   58 57  210/ 17/ 19 1019.7F         2/ 4
S GREEN BAY BUOY 0000   62     VRB  6/  8  1021.7R
CHAMBERS ISLAND  0000   61     190/  4/  9 1020.3R
MENOMINEE LKSHOR 0000   61     220/  6/  7 1020.9R
$$


USA.gov is the U.S. government's official web portal to all federal, state and local government web resources and services.